GW0701 Weather Reports


Display with metric or nautical units.
time (UTC)temp
F
wind
direction
speed
MPH
gust
MPH
rain 1hr
in
rain 24hr
in
rain mn
in
humidity
%
barometer
mb
20260901063118 77 225 1.0 1.0 0.00 0.00 0.00 85 1014.5
20260901062614 78 226 0.0 0.0 0.00 0.00 0.00 84 1014.3
20260901062110 78 224 1.0 2.0 0.00 0.00 0.00 84 1014.5
20260901061606 78 233 1.0 2.0 0.00 0.00 0.00 84 1014.4
20260901061105 78 227 0.0 0.0 0.00 0.00 0.00 84 1014.2
20260901060600 78 234 0.0 0.0 0.00 0.00 0.00 83 1014.4
20260901060055 78 230 0.0 0.0 0.00 0.00 0.00 83 1014.2
20260901055550 79 229 1.0 1.0 0.00 0.00 0.00 83 1014.1
20260901055047 79 227 1.0 1.0 0.00 0.00 0.00 82 1014.3
20260901054544 79 232 1.0 1.0 0.00 0.00 0.00 82 1014.3
20260901054040 79 222 1.0 1.0 0.00 0.00 0.00 81 1014.2
20260901053536 79 240 1.0 1.0 0.00 0.00 0.00 81 1014.3
20260901053031 80 228 0.0 1.0 0.00 0.00 0.00 80 1014.1
20260901052526 80 220 1.0 2.0 0.00 0.00 0.00 80 1014.1
20260901052026 80 231 1.0 1.0 0.00 0.00 0.00 80 1014.0
20260901051521 80 231 1.0 2.0 0.00 0.00 0.00 80 1014.0
20260901051019 80 234 1.0 2.0 0.00 0.00 0.00 80 1014.0
20260901050515 80 232 1.0 2.0 0.00 0.00 0.00 79 1014.1
20260901050010 80 226 2.0 2.0 0.00 0.00 0.00 78 1014.1
20260901045505 81 216 2.0 2.0 0.00 0.00 0.00 78 1014.0
20260901045000 81 241 3.0 3.0 0.00 0.00 0.00 78 1014.0
20260901044456 81 229 2.0 2.0 0.00 0.00 0.00 78 1014.1
20260901043952 81 214 2.0 2.0 0.00 0.00 0.00 78 1013.8
20260901043447 81 223 1.0 1.0 0.00 0.00 0.00 78 1014.1
20260901042942 81 226 1.0 1.0 0.00 0.00 0.00 78 1013.9
20260901042441 81 230 1.0 2.0 0.00 0.00 0.00 78 1014.0
20260901041937 81 230 1.0 1.0 0.00 0.00 0.00 78 1013.8
20260901041432 81 234 2.0 2.0 0.00 0.00 0.00 78 1014.0
20260901040931 81 193 2.0 3.0 0.00 0.00 0.00 78 1014.1
20260901040427 82 200 1.0 1.0 0.00 0.00 0.00 78 1013.7
20260901035925 81 197 1.0 2.0 0.00 0.00 0.00 78 1013.9
20260901035424 81 223 2.0 2.0 0.00 0.00 0.00 80 1013.9
20260901034923 80 221 1.0 1.0 0.00 0.00 0.00 81 1013.7
20260901034418 80 236 0.0 0.0 0.00 0.00 0.00 81 1014.0
20260901033913 81 224 1.0 1.0 0.00 0.00 0.00 81 1013.7
20260901033412 81 235 1.0 1.0 0.00 0.00 0.00 81 1014.0
20260901032911 80 210 2.0 2.0 0.00 0.00 0.00 82 1014.0
20260901032410 80 204 1.0 1.0 0.00 0.00 0.00 83 1014.0
20260901031905 80 205 1.0 1.0 0.00 0.00 0.00 85 1013.9
20260901031401 80 217 0.0 0.0 0.00 0.00 0.00 84 1014.0
20260901030900 80 209 0.0 1.0 0.00 0.00 0.00 84 1014.2
20260901030356 81 243 0.0 0.0 0.00 0.00 0.00 84 1014.1
20260901025855 81 235 0.0 0.0 0.00 0.00 0.00 83 1014.1
20260901025350 81 193 0.0 0.0 0.00 0.00 0.00 83 1013.9
20260901024845 80 210 1.0 1.0 0.00 0.00 0.00 83 1013.8
20260901024344 80 208 1.0 1.0 0.00 0.00 0.00 84 1013.9
20260901023842 81 211 0.0 0.0 0.00 0.00 0.00 83 1014.0
20260901023338 81 212 0.0 0.0 0.00 0.00 0.00 82 1014.1
20260901022833 81 212 0.0 0.0 0.00 0.00 0.00 82 1014.0
20260901022329 81 212 0.0 0.0 0.00 0.00 0.00 82 1013.8
20260901021824 81 212 0.0 0.0 0.00 0.00 0.00 83 1013.7
20260901021319 82 212 0.0 0.0 0.00 0.00 0.00 82 1013.9
20260901020814 82 212 0.0 0.0 0.00 0.00 0.00 80 1013.8
20260901020310 82 212 0.0 0.0 0.00 0.00 0.00 79 1013.7
20260901015810 82 212 0.0 0.0 0.00 0.00 0.00 79 1013.8
20260901015306 83 212 0.0 0.0 0.00 0.00 0.00 80 1013.7
20260901014805 83 214 0.0 0.0 0.00 0.00 0.00 79 1013.6
20260901014301 83 205 1.0 1.0 0.00 0.00 0.00 78 1013.6
20260901013757 84 205 0.0 1.0 0.00 0.00 0.00 78 1013.6
20260901013252 84 206 0.0 0.0 0.00 0.00 0.00 78 1013.5
20260901012747 84 204 0.0 0.0 0.00 0.00 0.00 77 1013.4
20260901012247 84 202 1.0 1.0 0.00 0.00 0.00 76 1013.3
20260901011743 84 196 0.0 0.0 0.00 0.00 0.00 77 1013.6
20260901011238 84 196 1.0 1.0 0.00 0.00 0.00 75 1013.3
20260901010732 83 211 0.0 0.0 0.00 0.00 0.00 79 1013.4
20260901010227 83 260 0.0 0.0 0.00 0.00 0.00 85 1013.1
20260901005726 83 260 0.0 0.0 0.00 0.00 0.00 87 1013.1
20260901005221 84 260 0.0 0.0 0.00 0.00 0.00 86 1013.2
20260901004721 84 260 0.0 0.0 0.00 0.00 0.00 86 1013.1
20260901004216 84 259 0.0 0.0 0.00 0.00 0.00 85 1013.1
20260901003715 85 260 0.0 0.0 0.00 0.00 0.00 81 1012.8
20260901003215 85 260 0.0 0.0 0.00 0.00 0.00 81 1013.1
20260901002709 86 260 0.0 0.0 0.00 0.00 0.00 81 1013.0
20260901002204 87 260 0.0 0.0 0.00 0.00 0.00 80 1012.9
20260901001700 87 260 0.0 0.0 0.00 0.00 0.00 80 1012.9
20260901001154 88 260 0.0 0.0 0.00 0.00 0.00 79 1012.8
20260901000650 89 260 0.0 0.0 0.00 0.00 0.00 77 1012.9
20260901000145 89 260 0.0 0.0 0.00 0.00 0.00 76 1013.0
20260831235644 89 260 0.0 0.0 0.00 0.00 0.00 76 1013.0
20260831235140 90 261 0.0 0.0 0.00 0.00 0.00 72 1013.0
20260831234639 89 261 0.0 0.0 0.00 0.00 0.00 72 1012.8
20260831234135 89 261 0.0 0.0 0.00 0.00 0.00 71 1012.9
20260831233630 91 263 0.0 0.0 0.00 0.00 0.00 70 1013.0
20260831233125 92 254 0.0 0.0 0.00 0.00 0.00 68 1013.0
20260831232620 92 256 0.0 0.0 0.00 0.00 0.00 66 1012.7
20260831232116 92 251 0.0 0.0 0.00 0.00 0.00 65 1012.9
20260831231612 93 243 0.0 1.0 0.00 0.00 0.00 63 1012.7
20260831231108 93 240 0.0 0.0 0.00 0.00 0.00 62 1012.9
20260831230604 93 251 0.0 0.0 0.00 0.00 0.00 63 1012.8
20260831230103 94 251 1.0 1.0 0.00 0.00 0.00 61 1012.6
20260831225558 95 265 2.0 2.0 0.00 0.00 0.00 59 1012.7
20260831225053 95 234 1.0 1.0 0.00 0.00 0.00 58 1012.8
20260831224548 95 247 1.0 1.0 0.00 0.00 0.00 57 1012.4
20260831224043 95 233 1.0 1.0 0.00 0.00 0.00 58 1012.4
20260831223539 95 232 2.0 2.0 0.00 0.00 0.00 57 1012.5
20260831223035 94 211 2.0 2.0 0.00 0.00 0.00 59 1012.5
20260831222531 94 209 2.0 2.0 0.00 0.00 0.00 58 1012.4
20260831222030 95 219 1.0 2.0 0.00 0.00 0.00 57 1012.4
20260831221526 95 223 1.0 1.0 0.00 0.00 0.00 56 1012.6
20260831221021 95 257 3.0 5.0 0.00 0.00 0.00 56 1012.4
20260831220517 95 221 1.0 1.0 0.00 0.00 0.00 56 1012.7
20260831220012 95 237 1.0 1.0 0.00 0.00 0.00 55 1012.8
20260831215507 96 229 1.0 1.0 0.00 0.00 0.00 55 1012.8
20260831215003 96 259 1.0 2.0 0.00 0.00 0.00 54 1012.7
20260831214501 95 237 1.0 2.0 0.00 0.00 0.00 56 1012.5
20260831213956 94 242 3.0 3.0 0.00 0.00 0.00 56 1012.7
20260831213453 94 223 1.0 2.0 0.00 0.00 0.00 56 1012.6
20260831212952 94 231 3.0 3.0 0.00 0.00 0.00 55 1012.6
20260831212448 94 241 3.0 3.0 0.00 0.00 0.00 54 1012.7
20260831211943 94 237 1.0 1.0 0.00 0.00 0.00 54 1012.7
20260831211438 95 258 1.0 2.0 0.00 0.00 0.00 55 1012.8
20260831210937 95 266 4.0 6.0 0.00 0.00 0.00 53 1012.8
20260831210433 95 237 3.0 3.0 0.00 0.00 0.00 52 1012.7
20260831205928 95 265 3.0 5.0 0.00 0.00 0.00 52 1012.9
20260831205424 95 261 3.0 3.0 0.00 0.00 0.00 51 1012.9
20260831204919 96 234 5.0 7.0 0.00 0.00 0.00 50 1012.8
20260831204418 96 242 5.0 6.0 0.00 0.00 0.00 51 1012.9
20260831203912 96 263 2.0 2.0 0.00 0.00 0.00 52 1012.7
20260831203406 95 246 3.0 3.0 0.00 0.00 0.00 51 1012.9
20260831202904 96 220 3.0 3.0 0.00 0.00 0.00 51 1012.9
20260831202400 96 224 3.0 3.0 0.00 0.00 0.00 51 1012.9
20260831201900 95 203 4.0 5.0 0.00 0.00 0.00 52 1012.6
20260831201359 95 231 4.0 6.0 0.00 0.00 0.00 51 1012.7
20260831200855 95 242 3.0 5.0 0.00 0.00 0.00 51 1012.8
20260831200349 95 234 3.0 3.0 0.00 0.00 0.00 55 1012.7
20260831195844 95 249 4.0 5.0 0.00 0.00 0.00 52 1012.7
20260831195340 95 232 3.0 5.0 0.00 0.00 0.00 54 1013.0
20260831194835 95 243 4.0 5.0 0.00 0.00 0.00 52 1012.9
20260831194331 95 213 4.0 6.0 0.00 0.00 0.00 53 1013.0
20260831193829 95 253 1.0 2.0 0.00 0.00 0.00 52 1013.0
20260831193325 94 176 5.0 7.0 0.00 0.00 0.00 55 1013.1
20260831192820 95 241 2.0 2.0 0.00 0.00 0.00 51 1012.9
20260831192315 94 266 3.0 3.0 0.00 0.00 0.00 54 1013.1
20260831191811 94 204 5.0 7.0 0.00 0.00 0.00 54 1013.2
20260831191307 94 215 4.0 5.0 0.00 0.00 0.00 53 1013.1
20260831190802 93 259 4.0 5.0 0.00 0.00 0.00 53 1013.1
20260831190302 93 232 3.0 3.0 0.00 0.00 0.00 56 1013.3
20260831185801 93 213 3.0 3.0 0.00 0.00 0.00 54 1013.2
20260831185257 93 211 5.0 9.0 0.00 0.00 0.00 55 1013.4
20260831184756 92 230 2.0 2.0 0.00 0.00 0.00 56 1013.2
20260831184252 92 179 3.0 3.0 0.00 0.00 0.00 57 1013.0
20260831183747 92 202 4.0 6.0 0.00 0.00 0.00 55 1013.3
20260831183247 92 228 4.0 5.0 0.00 0.00 0.00 56 1013.3
20260831182745 92 231 3.0 3.0 0.00 0.00 0.00 57 1013.3
20260831182241 92 223 2.0 2.0 0.00 0.00 0.00 57 1013.2
20260831181736 93 186 4.0 5.0 0.00 0.00 0.00 54 1013.4
20260831181231 93 237 2.0 2.0 0.00 0.00 0.00 56 1013.6
20260831180731 93 218 4.0 6.0 0.00 0.00 0.00 54 1013.4
20260831180226 93 235 2.0 3.0 0.00 0.00 0.00 55 1013.4
20260831175725 92 232 2.0 3.0 0.00 0.00 0.00 56 1013.6
20260831175222 92 228 4.0 6.0 0.00 0.00 0.00 55 1013.7
20260831174717 93 260 2.0 2.0 0.00 0.00 0.00 55 1013.9
20260831174213 92 265 3.0 5.0 0.00 0.00 0.00 54 1013.8
20260831173711 92 194 4.0 5.0 0.00 0.00 0.00 54 1013.9
20260831173206 92 253 4.0 5.0 0.00 0.00 0.00 55 1013.8
20260831172701 91 265 3.0 3.0 0.00 0.00 0.00 54 1013.8
20260831172156 91 233 4.0 5.0 0.00 0.00 0.00 55 1013.9
20260831171651 91 255 5.0 6.0 0.00 0.00 0.00 55 1013.9
20260831171148 91 285 5.0 6.0 0.00 0.00 0.00 55 1013.9
20260831170644 91 214 4.0 8.0 0.00 0.00 0.00 56 1014.1
20260831170141 90 218 1.0 2.0 0.00 0.00 0.00 60 1014.0
20260831165636 90 268 6.0 9.0 0.00 0.00 0.00 57 1014.1
20260831165133 90 192 3.0 7.0 0.00 0.00 0.00 61 1013.9
20260831164629 90 179 6.0 9.0 0.00 0.00 0.00 61 1014.1
20260831164124 89 224 3.0 5.0 0.00 0.00 0.00 61 1014.2
20260831163620 88 213 3.0 3.0 0.00 0.00 0.00 64 1014.2
20260831163115 89 180 4.0 5.0 0.00 0.00 0.00 63 1014.0
20260831162614 88 192 3.0 3.0 0.00 0.00 0.00 63 1014.1
20260831162112 87 236 0.0 0.0 0.00 0.00 0.00 65 1014.0
20260831161608 87 218 2.0 2.0 0.00 0.00 0.00 64 1014.3
20260831161105 87 228 2.0 3.0 0.00 0.00 0.00 65 1014.1
20260831160603 87 230 4.0 6.0 0.00 0.00 0.00 65 1014.4
20260831160059 86 237 1.0 2.0 0.00 0.00 0.00 66 1014.2
20260831155553 86 193 3.0 5.0 0.00 0.00 0.00 66 1014.3
20260831155049 85 246 3.0 3.0 0.00 0.00 0.00 67 1014.3
20260831154545 84 237 1.0 2.0 0.00 0.00 0.00 68 1014.0
20260831154044 84 232 3.0 3.0 0.00 0.00 0.00 68 1014.2
20260831153538 83 245 2.0 2.0 0.00 0.00 0.00 68 1013.9
20260831153035 83 258 3.0 3.0 0.00 0.00 0.00 69 1014.1
20260831152530 83 226 3.0 3.0 0.00 0.00 0.00 68 1014.0
20260831152026 83 209 3.0 5.0 0.00 0.00 0.00 68 1014.0
20260831151525 84 234 5.0 7.0 0.00 0.00 0.00 66 1014.1
20260831151025 85 215 3.0 5.0 0.00 0.00 0.00 67 1013.9
20260831150520 85 173 3.0 5.0 0.00 0.00 0.00 64 1014.0
20260831150017 84 190 4.0 5.0 0.00 0.00 0.00 66 1014.0
20260831145511 84 219 3.0 5.0 0.00 0.00 0.00 67 1013.5
20260831145007 83 242 4.0 6.0 0.00 0.00 0.00 68 1014.1
20260831144502 83 224 2.0 3.0 0.00 0.00 0.00 68 1013.6
20260831143957 82 219 8.0 10.0 0.00 0.00 0.00 67 1013.7
20260831143452 82 172 3.0 6.0 0.00 0.00 0.00 68 1013.7
20260831142948 82 238 4.0 7.0 0.00 0.00 0.00 69 1013.9
20260831142444 81 133 4.0 5.0 0.00 0.00 0.00 69 1014.0
20260831141938 81 195 4.0 6.0 0.00 0.00 0.00 69 1013.9
20260831141432 81 233 4.0 5.0 0.00 0.00 0.00 70 1013.9
20260831140927 81 194 3.0 5.0 0.00 0.00 0.00 69 1013.8
20260831140421 80 198 6.0 8.0 0.00 0.00 0.00 69 1014.1
20260831135920 80 251 3.0 5.0 0.00 0.00 0.00 69 1014.0
20260831135420 80 234 3.0 3.0 0.00 0.00 0.00 69 1013.8
20260831134915 80 194 3.0 3.0 0.00 0.00 0.00 70 1013.9
20260831134412 80 233 3.0 6.0 0.00 0.00 0.00 70 1013.9
20260831133911 81 258 3.0 5.0 0.00 0.00 0.00 70 1013.9
20260831133406 80 244 3.0 3.0 0.00 0.00 0.00 69 1013.9
20260831132901 79 189 4.0 5.0 0.00 0.00 0.00 71 1013.8
20260831132356 79 215 3.0 5.0 0.00 0.00 0.00 71 1014.0
20260831131855 78 247 2.0 2.0 0.00 0.00 0.00 73 1013.7
20260831131351 78 225 5.0 8.0 0.00 0.00 0.00 73 1013.8
20260831130846 77 211 2.0 3.0 0.00 0.00 0.00 73 1013.7
20260831130342 77 233 5.0 7.0 0.00 0.00 0.00 74 1013.8
20260831125841 77 223 2.0 2.0 0.00 0.00 0.00 74 1013.9
20260831125336 77 229 2.0 2.0 0.00 0.00 0.00 75 1013.7
20260831124831 77 221 1.0 2.0 0.00 0.00 0.00 75 1013.6
20260831124328 77 229 3.0 5.0 0.00 0.00 0.00 75 1013.7
20260831123827 76 181 3.0 3.0 0.00 0.00 0.00 75 1013.6
20260831123326 76 180 5.0 6.0 0.00 0.00 0.00 74 1013.6
20260831122821 76 205 2.0 2.0 0.00 0.00 0.00 75 1013.6
20260831122316 76 179 1.0 2.0 0.00 0.00 0.00 76 1013.7
20260831121816 76 203 1.0 2.0 0.00 0.00 0.00 76 1013.7
20260831121313 76 236 2.0 2.0 0.00 0.00 0.00 76 1013.4
20260831120808 76 176 2.0 2.0 0.00 0.00 0.00 76 1013.6
20260831120302 75 199 2.0 2.0 0.00 0.00 0.00 76 1013.8
20260831115757 76 224 1.0 2.0 0.00 0.00 0.00 75 1013.5
20260831115254 76 232 2.0 3.0 0.00 0.00 0.00 76 1013.3
20260831114752 76 209 3.0 5.0 0.00 0.00 0.00 75 1013.3
20260831114247 76 207 1.0 2.0 0.00 0.00 0.00 75 1013.4
20260831113743 76 205 7.0 9.0 0.00 0.00 0.00 75 1013.4
20260831113242 76 223 2.0 3.0 0.00 0.00 0.00 76 1013.4
20260831112742 76 198 2.0 3.0 0.00 0.00 0.00 76 1013.3
20260831112237 76 221 1.0 2.0 0.00 0.00 0.00 75 1013.3
20260831111733 76 203 3.0 3.0 0.00 0.00 0.00 76 1013.3
20260831111229 76 183 4.0 6.0 0.00 0.00 0.00 75 1013.2
20260831110724 75 201 3.0 3.0 0.00 0.00 0.00 76 1013.4
20260831110220 75 224 3.0 5.0 0.00 0.00 0.00 77 1013.2
20260831105718 75 215 1.0 1.0 0.00 0.00 0.00 78 1013.5
20260831105214 75 207 4.0 6.0 0.00 0.00 0.00 78 1013.2
20260831104708 75 218 3.0 3.0 0.00 0.00 0.00 78 1013.3
20260831104205 75 228 2.0 3.0 0.00 0.00 0.00 79 1013.4
20260831103705 74 229 2.0 3.0 0.00 0.00 0.00 80 1013.2
20260831103201 74 193 3.0 3.0 0.00 0.00 0.00 80 1013.2
20260831102701 74 213 1.0 2.0 0.00 0.00 0.00 81 1013.3
20260831102155 74 205 5.0 6.0 0.00 0.00 0.00 81 1013.3
20260831101650 74 205 2.0 2.0 0.00 0.00 0.00 81 1013.2
20260831101146 74 205 5.0 7.0 0.00 0.00 0.00 81 1013.0
20260831100642 73 215 2.0 2.0 0.00 0.00 0.00 81 1013.4
20260831100138 73 210 1.0 1.0 0.00 0.00 0.00 82 1013.5
20260831095636 74 231 2.0 2.0 0.00 0.00 0.00 81 1013.4
20260831095131 74 226 2.0 2.0 0.00 0.00 0.00 81 1013.3
20260831094626 74 220 1.0 2.0 0.00 0.00 0.00 81 1013.0
20260831094123 74 197 2.0 2.0 0.00 0.00 0.00 82 1013.2
20260831093618 74 183 3.0 5.0 0.00 0.00 0.00 81 1013.1
20260831093114 74 205 2.0 2.0 0.00 0.00 0.00 81 1013.2
20260831092610 74 201 3.0 3.0 0.00 0.00 0.00 82 1013.4
20260831092105 74 210 3.0 5.0 0.00 0.00 0.00 82 1013.3
20260831091605 74 207 2.0 3.0 0.00 0.00 0.00 82 1012.9
20260831091100 74 199 3.0 3.0 0.00 0.00 0.00 82 1013.0
20260831090555 74 182 3.0 5.0 0.00 0.00 0.00 82 1013.1
20260831090052 74 187 1.0 1.0 0.00 0.00 0.00 82 1013.0
20260831085547 74 206 2.0 3.0 0.00 0.00 0.00 81 1013.1
20260831085042 74 212 2.0 2.0 0.00 0.00 0.00 81 1013.2
20260831084538 75 194 5.0 6.0 0.00 0.00 0.00 80 1013.3
20260831084034 75 209 4.0 5.0 0.00 0.00 0.00 80 1013.1
20260831083529 75 194 3.0 3.0 0.00 0.00 0.00 80 1013.0
20260831083024 75 195 4.0 6.0 0.00 0.00 0.00 80 1012.8
20260831082523 75 171 5.0 6.0 0.00 0.00 0.00 80 1012.8
20260831082019 75 223 3.0 3.0 0.00 0.00 0.00 80 1012.8
20260831081514 75 211 2.0 3.0 0.00 0.00 0.00 80 1012.7
20260831081010 75 188 4.0 5.0 0.00 0.00 0.00 79 1013.0
20260831080504 75 203 2.0 2.0 0.00 0.00 0.00 79 1012.9
20260831080000 75 191 5.0 6.0 0.00 0.00 0.00 80 1012.8
20260831075455 75 218 3.0 3.0 0.00 0.00 0.00 79 1012.8
20260831074951 76 185 4.0 5.0 0.00 0.00 0.00 79 1012.9
20260831074451 76 190 5.0 7.0 0.00 0.00 0.00 79 1012.8
20260831073945 76 188 4.0 5.0 0.00 0.00 0.00 79 1012.8
20260831073444 76 190 5.0 7.0 0.00 0.00 0.00 79 1013.1
20260831072944 76 194 4.0 6.0 0.00 0.00 0.00 79 1012.7
20260831072440 76 196 4.0 6.0 0.00 0.00 0.00 79 1012.7
20260831071937 76 198 3.0 3.0 0.00 0.00 0.00 78 1012.8
20260831071435 76 190 1.0 2.0 0.00 0.00 0.00 78 1012.9
20260831070930 77 188 3.0 3.0 0.00 0.00 0.00 78 1013.0
20260831070429 77 202 4.0 5.0 0.00 0.00 0.00 78 1012.9
20260831065929 77 206 3.0 5.0 0.00 0.00 0.00 78 1012.7
20260831065427 77 195 5.0 7.0 0.00 0.00 0.00 78 1012.9
20260831064922 77 211 5.0 7.0 0.00 0.00 0.00 77 1012.8
20260831064417 77 193 4.0 5.0 0.00 0.00 0.00 77 1012.7
20260831063913 77 184 6.0 7.0 0.00 0.00 0.00 77 1012.9
20260831063408 77 203 5.0 7.0 0.00 0.00 0.00 76 1012.9